Flag for Germany Weather past 2 weeks in Cottbus, Brandenburg, Germany

Now
46 °F

Passing clouds.


Feels Like: 46 °F
Forecast: 41 / 49 °F
Wind: 2 mph from West

Location: Cottbus

Current Time: Mar 27, 2015 at 7:17:52 PM

Latest Report: Mar 27, 2015 at 6:00 PM


Visibility: 11 mi

Pressure: 29.98 "Hg

Humidity: 87%

Dew point: 42 °F

Location of CottbusLocation

Historic Weather in Cottbus — Graph

°F

Cottbus temperature yesterday

Maximum temperature yesterday: 54 °F (at 2:00 AM)
Minimum temperature yesterday: 44 °F (at 10:00 PM)
Average temperature yesterday: 49 °F

Past Weeks' High & Low Weather Summary

 TemperatureHumidityPressure
High65 °F (Mar 25, 4:00 PM)98% (Mar 13, 7:00 AM)30.49 "Hg (Mar 13, 7:00 AM)
Low23 °F (Mar 20, 6:00 AM)20% (Mar 18, 4:00 PM)29.65 "Hg (Mar 26, 3:00 AM)
Average43 °F70%30.17 "Hg
* Reported Mar 12 6:00 PM — Mar 27 6:00 PM, Cottbus, Weather by CustomWeather, © 2015

Note: Actual official high and low records may vary slightly from our data, if they occured in-between our weather recording intervals... More about our weather records

Advertising

Cottbus weather history for previous 24 hours

 ConditionsComfort  
Time TempWeatherWind HumidityBarometerVisibility
6:00 PM
Fri, Mar 27
46 °FPassing clouds.2 mph87%29.98 "Hg11 mi
5:00 PM50 °FPartly sunny.5 mph59%29.96 "Hg22 mi
4:00 PM52 °FOvercast.3 mph55%29.94 "Hg17 mi
3:00 PM51 °FOvercast.7 mph59%29.93 "Hg15 mi
2:00 PM52 °FOvercast.3 mph56%29.91 "Hg13 mi
1:00 PM50 °FOvercast.3 mph64%29.91 "Hg11 mi
12:00 PM51 °FScattered clouds.5 mph64%29.90 "Hg9 mi
11:00 AM46 °FOvercast.5 mph78%29.91 "Hg5 mi
10:00 AM45 °FFog.3 mph81%29.90 "Hg4 mi
9:00 AM44 °FFog.5 mph87%29.89 "Hg4 mi
8:00 AM43 °FFog.3 mph91%29.88 "Hg2 mi
7:00 AM42 °FFog.2 mph94%29.85 "Hg2 mi
6:00 AM42 °FLow clouds.3 mph95%29.83 "Hg2 mi
5:00 AM43 °FLight rain. Low clouds.3 mph98%29.82 "Hg1 mi
4:00 AM43 °FLight rain. Low clouds.2 mph97%29.80 "Hg1 mi
3:00 AM43 °FFog.1 mph96%29.80 "Hg2 mi
2:00 AM43 °FFog.1 mph97%29.79 "Hg2 mi
1:00 AM43 °FOvercast.1 mph97%29.79 "Hg1 mi
12:00 AM43 °FLight rain. Dense fog.1 mph97%29.79 "Hg1 mi
11:00 PM
Thu, Mar 26
44 °FLight rain. Low clouds.1 mph95%29.79 "Hg1 mi
10:00 PM44 °FLight freezing rain. Overcast.2 mph94%29.79 "Hg2 mi
9:00 PM44 °FLight rain. Fog.1 mph92%29.78 "Hg2 mi
8:00 PM46 °FFog.1 mph85%29.78 "Hg3 mi
7:00 PM46 °FFog.2 mph83%29.77 "Hg3 mi
Weather by CustomWeather, © 2015

See weather overviewHow to use our weather pages